Time,TemperatureF,DewpointF,PressureIn,WindDirection,WindDirectionDegrees,WindSpeedMPH,WindSpeedGustMPH,Humidity,HourlyPrecipIn,Conditions,Clouds,dailyrainin,SoftwareType,DateUTC
2013-01-19 00:10:00,24.5,22.8,30.38,West,281,0.0,0.0,93,0.00,,,0.00,Wunderground v.1.15,2013-01-19 05:10:00,
2013-01-19 00:20:00,24.9,23.2,30.37,West,281,0.0,0.0,93,0.00,,,0.00,Wunderground v.1.15,2013-01-19 05:20:00,
2013-01-19 00:30:00,24.9,23.2,30.37,West,281,0.0,0.0,93,0.00,,,0.00,Wunderground v.1.15,2013-01-19 05:30:00,
2013-01-19 00:40:00,24.6,22.9,30.38,West,281,0.0,0.0,93,0.00,,,0.00,Wunderground v.1.15,2013-01-19 05:40:00,
2013-01-19 00:50:00,24.3,22.6,30.38,West,281,0.0,0.0,93,0.00,,,0.00,Wunderground v.1.15,2013-01-19 05:50:00,
2013-01-19 01:00:00,24.4,22.9,30.37,West,267,0.0,1.0,94,0.00,,,0.00,Wunderground v.1.15,2013-01-19 06:00:00,
2013-01-19 01:10:00,24.7,23.2,30.37,West,267,0.0,0.0,94,0.00,,,0.00,Wunderground v.1.15,2013-01-19 06:10:00,
2013-01-19 01:20:00,24.7,23.0,30.37,West,267,0.0,0.0,93,0.00,,,0.00,Wunderground v.1.15,2013-01-19 06:20:00,
2013-01-19 01:30:00,24.5,22.8,30.37,West,267,0.0,0.0,93,0.00,,,0.00,Wunderground v.1.15,2013-01-19 06:30:00,
2013-01-19 01:40:00,24.2,22.5,30.37,West,267,0.0,0.0,93,0.00,,,0.00,Wunderground v.1.15,2013-01-19 06:40:00,
2013-01-19 01:50:00,24.5,22.8,30.37,NNW,335,1.0,1.0,93,0.00,,,0.00,Wunderground v.1.15,2013-01-19 06:50:00,
2013-01-19 02:00:00,25.3,23.8,30.37,NNW,335,0.0,0.0,94,0.00,,,0.00,Wunderground v.1.15,2013-01-19 07:00:00,
2013-01-19 02:10:00,25.8,24.1,30.36,NNW,334,0.0,0.0,93,0.00,,,0.00,Wunderground v.1.15,2013-01-19 07:10:00,
2013-01-19 02:20:00,26.2,24.5,30.37,NNW,334,0.0,0.0,93,0.00,,,0.00,Wunderground v.1.15,2013-01-19 07:20:00,
2013-01-19 02:30:00,26.3,24.3,30.37,NNW,335,0.0,0.0,92,0.00,,,0.00,Wunderground v.1.15,2013-01-19 07:30:00,
2013-01-19 02:40:00,26.1,23.8,30.37,NNW,335,0.0,0.0,91,0.00,,,0.00,Wunderground v.1.15,2013-01-19 07:40:00,
2013-01-19 02:50:00,25.7,23.4,30.37,NNW,334,0.0,0.0,91,0.00,,,0.00,Wunderground v.1.15,2013-01-19 07:50:00,
2013-01-19 03:00:00,25.5,23.2,30.36,NW,319,0.0,2.0,91,0.00,,,0.00,Wunderground v.1.15,2013-01-19 08:00:00,
2013-01-19 03:10:00,25.9,23.9,30.36,WNW,288,0.0,0.0,92,0.00,,,0.00,Wunderground v.1.15,2013-01-19 08:10:00,
2013-01-19 03:20:00,26.3,24.0,30.36,WNW,289,0.0,0.0,91,0.00,,,0.00,Wunderground v.1.15,2013-01-19 08:20:00,
2013-01-19 03:30:00,26.6,24.3,30.35,WNW,297,1.0,1.0,91,0.00,,,0.00,Wunderground v.1.15,2013-01-19 08:30:00,
2013-01-19 03:40:00,26.9,24.4,30.35,WNW,297,0.0,0.0,90,0.00,,,0.00,Wunderground v.1.15,2013-01-19 08:40:00,
2013-01-19 03:50:00,26.8,24.0,30.35,WNW,296,0.0,0.0,89,0.00,,,0.00,Wunderground v.1.15,2013-01-19 08:50:00,
2013-01-19 04:00:00,26.6,23.8,30.35,WNW,297,0.0,0.0,89,0.00,,,0.00,Wunderground v.1.15,2013-01-19 09:00:00,
2013-01-19 04:10:00,26.6,23.8,30.34,WNW,297,0.0,0.0,89,0.00,,,0.00,Wunderground v.1.15,2013-01-19 09:10:00,
2013-01-19 04:20:00,26.7,23.9,30.34,WNW,297,0.0,0.0,89,0.00,,,0.00,Wunderground v.1.15,2013-01-19 09:20:00,
2013-01-19 04:30:00,26.9,23.8,30.34,WNW,297,0.0,0.0,88,0.00,,,0.00,Wunderground v.1.15,2013-01-19 09:30:00,
2013-01-19 04:40:00,26.9,23.8,30.34,WNW,297,0.0,0.0,88,0.00,,,0.00,Wunderground v.1.15,2013-01-19 09:40:00,
2013-01-19 04:50:00,27.0,23.9,30.34,WNW,297,0.0,0.0,88,0.00,,,0.00,Wunderground v.1.15,2013-01-19 09:50:00,
2013-01-19 05:00:00,26.9,23.5,30.34,WNW,297,0.0,0.0,87,0.00,,,0.00,Wunderground v.1.15,2013-01-19 10:00:00,
2013-01-19 05:10:00,26.6,23.3,30.34,WNW,297,0.0,0.0,87,0.00,,,0.00,Wunderground v.1.15,2013-01-19 10:10:00,
2013-01-19 05:20:00,26.2,22.9,30.34,WNW,297,0.0,0.0,87,0.00,,,0.00,Wunderground v.1.15,2013-01-19 10:20:00,
2013-01-19 05:30:00,26.2,23.1,30.34,WNW,297,0.0,0.0,88,0.00,,,0.00,Wunderground v.1.15,2013-01-19 10:30:00,
2013-01-19 05:40:00,26.1,22.8,30.33,WNW,297,0.0,0.0,87,0.00,,,0.00,Wunderground v.1.15,2013-01-19 10:40:00,
2013-01-19 05:50:00,26.0,22.7,30.34,WNW,297,0.0,0.0,87,0.00,,,0.00,Wunderground v.1.15,2013-01-19 10:50:00,
2013-01-19 06:00:00,25.8,22.7,30.34,WNW,297,0.0,0.0,88,0.00,,,0.00,Wunderground v.1.15,2013-01-19 11:00:00,
2013-01-19 06:10:00,25.4,22.1,30.34,WNW,296,0.0,0.0,87,0.00,,,0.00,Wunderground v.1.15,2013-01-19 11:10:00,
2013-01-19 07:50:00,26.1,23.6,30.34,West,268,0.0,0.0,90,0.00,,,0.00,Wunderground v.1.15,2013-01-19 12:50:00,
2013-01-19 08:00:00,26.0,23.2,30.34,WSW,255,0.0,0.0,89,0.00,,,0.00,Wunderground v.1.15,2013-01-19 13:00:00,
2013-01-19 08:10:00,26.0,23.2,30.34,WSW,255,0.0,0.0,89,0.00,,,0.00,Wunderground v.1.15,2013-01-19 13:10:00,
2013-01-19 08:20:00,25.1,22.3,30.35,WSW,255,0.0,0.0,89,0.00,,,0.00,Wunderground v.1.15,2013-01-19 13:20:00,
2013-01-19 08:30:00,24.2,21.4,30.35,WSW,255,0.0,0.0,89,0.00,,,0.00,Wunderground v.1.15,2013-01-19 13:30:00,
2013-01-19 08:40:00,24.9,22.6,30.35,WSW,254,0.0,0.0,91,0.00,,,0.00,Wunderground v.1.15,2013-01-19 13:40:00,
2013-01-19 08:50:00,26.2,23.9,30.35,North,350,0.0,0.0,91,0.00,,,0.00,Wunderground v.1.15,2013-01-19 13:50:00,
2013-01-19 09:00:00,27.4,24.9,30.35,WSW,250,1.0,1.0,90,0.00,,,0.00,Wunderground v.1.15,2013-01-19 14:00:00,
2013-01-19 09:10:00,28.2,25.1,30.35,WSW,250,0.0,0.0,88,0.00,,,0.00,Wunderground v.1.15,2013-01-19 14:10:00,
2013-01-19 09:20:00,29.0,25.9,30.35,WSW,250,0.0,0.0,88,0.00,,,0.00,Wunderground v.1.15,2013-01-19 14:20:00,
2013-01-19 09:30:00,29.8,26.1,30.36,WSW,250,0.0,0.0,86,0.00,,,0.00,Wunderground v.1.15,2013-01-19 14:30:00,
2013-01-19 09:40:00,30.1,26.1,30.36,WSW,250,0.0,1.0,85,0.00,,,0.00,Wunderground v.1.15,2013-01-19 14:40:00,
2013-01-19 09:50:00,29.7,25.5,30.36,WSW,250,0.0,0.0,84,0.00,,,0.00,Wunderground v.1.15,2013-01-19 14:50:00,
2013-01-19 10:00:00,30.8,26.5,30.36,WSW,250,0.0,0.0,84,0.00,,,0.00,Wunderground v.1.15,2013-01-19 15:00:00,
2013-01-19 10:10:00,31.7,26.8,30.35,WSW,250,1.0,1.0,82,0.00,,,0.00,Wunderground v.1.15,2013-01-19 15:10:00,
2013-01-19 10:20:00,31.7,26.5,30.35,WSW,250,0.0,0.0,81,0.00,,,0.00,Wunderground v.1.15,2013-01-19 15:20:00,
2013-01-19 10:30:00,32.1,26.9,30.35,WSW,250,0.0,0.0,81,0.00,,,0.00,Wunderground v.1.15,2013-01-19 15:30:00,
2013-01-19 10:40:00,33.0,27.5,30.34,WSW,250,0.0,0.0,80,0.00,,,0.00,Wunderground v.1.15,2013-01-19 15:40:00,
2013-01-19 10:50:00,34.4,28.2,30.33,WSW,250,1.0,1.0,78,0.00,,,0.00,Wunderground v.1.15,2013-01-19 15:50:00,
2013-01-19 11:00:00,35.3,29.1,30.33,WSW,250,1.0,2.0,78,0.00,,,0.00,Wunderground v.1.15,2013-01-19 16:00:00,
2013-01-19 11:10:00,35.3,28.5,30.32,South,190,1.0,1.0,76,0.00,,,0.01,Wunderground v.1.15,2013-01-19 16:10:00,
2013-01-19 11:20:00,35.2,28.7,30.32,SSW,197,2.0,2.0,77,0.00,,,0.01,Wunderground v.1.15,2013-01-19 16:20:00,
2013-01-19 11:30:00,35.6,29.1,30.31,SSW,192,1.0,3.0,77,0.00,,,0.01,Wunderground v.1.15,2013-01-19 16:30:00,
2013-01-19 11:40:00,36.3,29.8,30.30,SW,219,1.0,1.0,77,0.00,,,0.02,Wunderground v.1.15,2013-01-19 16:40:00,
2013-01-19 11:50:00,36.8,29.9,30.29,South,184,1.0,2.0,76,0.00,,,0.02,Wunderground v.1.15,2013-01-19 16:50:00,
2013-01-19 12:00:00,37.1,29.6,30.28,SSW,193,2.0,2.0,74,0.04,,,0.03,Wunderground v.1.15,2013-01-19 17:00:00,
2013-01-19 12:10:00,37.8,30.3,30.27,South,187,1.0,1.0,74,0.04,,,0.03,Wunderground v.1.15,2013-01-19 17:10:00,
2013-01-19 12:20:00,38.6,30.7,30.26,WSW,251,1.0,1.0,73,0.04,,,0.04,Wunderground v.1.15,2013-01-19 17:20:00,
2013-01-19 12:30:00,38.8,29.8,30.25,South,178,2.0,2.0,70,0.00,,,0.05,Wunderground v.1.15,2013-01-19 17:30:00,
2013-01-19 12:40:00,39.2,30.2,30.24,SSW,210,1.0,2.0,70,0.00,,,0.05,Wunderground v.1.15,2013-01-19 17:40:00,
2013-01-19 12:50:00,40.0,31.0,30.23,SSW,203,1.0,1.0,70,0.00,,,0.06,Wunderground v.1.15,2013-01-19 17:50:00,
2013-01-19 13:00:00,40.4,31.0,30.23,SSW,194,1.0,1.0,69,0.00,,,0.06,Wunderground v.1.15,2013-01-19 18:00:00,
2013-01-19 13:10:00,40.7,31.7,30.22,SSW,198,1.0,1.0,70,0.00,,,0.06,Wunderground v.1.15,2013-01-19 18:10:00,
2013-01-19 13:20:00,41.4,32.3,30.21,SW,219,2.0,2.0,70,0.00,,,0.07,Wunderground v.1.15,2013-01-19 18:20:00,
2013-01-19 13:30:00,41.8,32.0,30.20,SSW,199,2.0,3.0,68,0.00,,,0.07,Wunderground v.1.15,2013-01-19 18:30:00,
2013-01-19 13:40:00,41.9,32.1,30.20,SSW,212,2.0,2.0,68,0.00,,,0.07,Wunderground v.1.15,2013-01-19 18:40:00,
2013-01-19 13:50:00,42.2,32.4,30.19,South,191,2.0,2.0,68,0.00,,,0.07,Wunderground v.1.15,2013-01-19 18:50:00,
2013-01-19 14:10:00,42.6,32.4,30.18,SSW,211,2.0,2.0,67,0.00,,,0.08,Wunderground v.1.15,2013-01-19 19:10:00,
2013-01-19 14:30:00,43.2,32.2,30.18,NNE,13,3.0,3.0,65,0.00,,,0.08,Wunderground v.1.15,2013-01-19 19:30:00,
2013-01-19 14:40:00,43.1,31.7,30.17,South,187,3.0,3.0,64,0.00,,,0.08,Wunderground v.1.15,2013-01-19 19:40:00,
2013-01-19 14:50:00,43.3,31.9,30.17,SSW,207,1.0,3.0,64,0.00,,,0.08,Wunderground v.1.15,2013-01-19 19:50:00,
2013-01-19 15:00:00,43.5,32.1,30.17,SW,229,2.0,2.0,64,0.00,,,0.08,Wunderground v.1.15,2013-01-19 20:00:00,
2013-01-19 15:10:00,43.6,31.8,30.16,South,191,1.0,1.0,63,0.00,,,0.08,Wunderground v.1.15,2013-01-19 20:10:00,
2013-01-19 15:20:00,44.0,32.2,30.16,South,189,2.0,2.0,63,0.00,,,0.08,Wunderground v.1.15,2013-01-19 20:20:00,
2013-01-19 15:30:00,44.2,31.6,30.15,South,190,2.0,2.0,61,0.00,,,0.08,Wunderground v.1.15,2013-01-19 20:30:00,
2013-01-19 15:40:00,44.2,31.6,30.15,North,9,3.0,3.0,61,0.00,,,0.08,Wunderground v.1.15,2013-01-19 20:40:00,
2013-01-19 15:50:00,44.4,31.0,30.14,SSW,199,2.0,2.0,59,0.00,,,0.08,Wunderground v.1.15,2013-01-19 20:50:00,
2013-01-19 16:00:00,44.5,31.5,30.14,SSW,202,2.0,2.0,60,0.00,,,0.08,Wunderground v.1.15,2013-01-19 21:00:00,
2013-01-19 16:10:00,44.4,30.5,30.14,SW,216,2.0,2.0,58,0.00,,,0.08,Wunderground v.1.15,2013-01-19 21:10:00,
2013-01-19 16:20:00,44.0,30.6,30.13,SSW,202,1.0,1.0,59,0.00,,,0.08,Wunderground v.1.15,2013-01-19 21:20:00,
2013-01-19 16:30:00,43.8,30.4,30.13,WSW,244,1.0,1.0,59,0.00,,,0.08,Wunderground v.1.15,2013-01-19 21:30:00,
2013-01-19 17:00:00,43.4,29.6,30.12,West,273,0.0,1.0,58,0.00,,,0.08,Wunderground v.1.15,2013-01-19 22:00:00,
2013-01-19 17:10:00,43.1,28.9,30.12,West,274,0.0,0.0,57,0.00,,,0.08,Wunderground v.1.15,2013-01-19 22:10:00,
2013-01-19 17:20:00,42.5,27.0,30.12,SSW,207,1.0,1.0,54,0.00,,,0.08,Wunderground v.1.15,2013-01-19 22:20:00,
2013-01-19 17:30:00,42.1,26.2,30.12,WSW,238,1.0,1.0,53,0.00,,,0.08,Wunderground v.1.15,2013-01-19 22:30:00,
2013-01-19 17:40:00,41.7,25.8,30.12,WSW,240,0.0,1.0,53,0.00,,,0.08,Wunderground v.1.15,2013-01-19 22:40:00,
2013-01-19 17:50:00,41.3,25.0,30.12,SW,227,0.0,1.0,52,0.00,,,0.08,Wunderground v.1.15,2013-01-19 22:50:00,
2013-01-19 18:10:00,40.5,23.8,30.11,West,281,0.0,1.0,51,0.00,,,0.08,Wunderground v.1.15,2013-01-19 23:10:00,
2013-01-19 18:20:00,40.3,23.6,30.11,SW,223,1.0,1.0,51,0.00,,,0.08,Wunderground v.1.15,2013-01-19 23:20:00,
2013-01-19 18:30:00,40.0,23.8,30.11,SSW,195,1.0,1.0,52,0.00,,,0.08,Wunderground v.1.15,2013-01-19 23:30:00,
2013-01-19 18:40:00,39.6,23.9,30.11,SSW,195,0.0,0.0,53,0.00,,,0.08,Wunderground v.1.15,2013-01-19 23:40:00,
2013-01-19 18:50:00,39.0,23.3,30.11,SSW,195,0.0,0.0,53,0.00,,,0.08,Wunderground v.1.15,2013-01-19 23:50:00,
2013-01-19 19:00:00,38.4,23.2,30.11,SSW,195,0.0,0.0,54,0.00,,,0.08,Wunderground v.1.15,2013-01-20 00:00:00,
2013-01-19 19:10:00,37.9,23.2,30.12,SSW,195,0.0,0.0,55,0.00,,,0.08,Wunderground v.1.15,2013-01-20 00:10:00,
2013-01-19 19:20:00,37.5,23.2,30.12,SSW,195,0.0,0.0,56,0.00,,,0.08,Wunderground v.1.15,2013-01-20 00:20:00,
2013-01-19 19:40:00,36.7,22.9,30.11,SSW,195,0.0,0.0,57,0.00,,,0.08,Wunderground v.1.15,2013-01-20 00:40:00,
2013-01-19 19:50:00,36.4,23.0,30.11,SSW,195,0.0,0.0,58,0.00,,,0.08,Wunderground v.1.15,2013-01-20 00:50:00,
2013-01-19 20:00:00,36.1,23.1,30.11,SSW,195,0.0,0.0,59,0.00,,,0.08,Wunderground v.1.15,2013-01-20 01:00:00,
2013-01-19 20:10:00,35.8,23.3,30.10,SSW,195,0.0,0.0,60,0.00,,,0.08,Wunderground v.1.15,2013-01-20 01:10:00,
2013-01-19 20:30:00,34.4,23.1,30.10,SSW,195,0.0,0.0,63,0.00,,,0.08,Wunderground v.1.15,2013-01-20 01:30:00,
2013-01-19 20:40:00,34.1,23.2,30.10,SSW,195,0.0,0.0,64,0.00,,,0.08,Wunderground v.1.15,2013-01-20 01:40:00,
2013-01-19 20:50:00,34.0,23.1,30.10,West,263,0.0,0.0,64,0.00,,,0.08,Wunderground v.1.15,2013-01-20 01:50:00,
2013-01-19 21:00:00,34.4,23.1,30.09,WSW,237,0.0,0.0,63,0.00,,,0.08,Wunderground v.1.15,2013-01-20 02:00:00,
2013-01-19 21:10:00,35.2,23.5,30.09,SW,230,1.0,1.0,62,0.00,,,0.08,Wunderground v.1.15,2013-01-20 02:10:00,
2013-01-19 21:20:00,35.6,23.9,30.09,SW,226,0.0,1.0,62,0.00,,,0.08,Wunderground v.1.15,2013-01-20 02:20:00,
2013-01-19 21:30:00,35.7,23.9,30.09,WNW,303,0.0,4.0,62,0.00,,,0.08,Wunderground v.1.15,2013-01-20 02:30:00,
2013-01-19 21:40:00,36.2,24.0,30.08,West,268,1.0,1.0,61,0.00,,,0.08,Wunderground v.1.15,2013-01-20 02:40:00,
2013-01-19 21:50:00,36.5,24.3,30.08,West,268,1.0,1.0,61,0.00,,,0.08,Wunderground v.1.15,2013-01-20 02:50:00,
2013-01-19 22:00:00,36.6,24.4,30.07,SSW,211,1.0,1.0,61,0.00,,,0.08,Wunderground v.1.15,2013-01-20 03:00:00,
2013-01-19 22:10:00,36.6,24.4,30.08,West,260,1.0,1.0,61,0.00,,,0.08,Wunderground v.1.15,2013-01-20 03:10:00,
2013-01-19 22:20:00,36.5,24.7,30.07,West,277,1.0,1.0,62,0.00,,,0.08,Wunderground v.1.15,2013-01-20 03:20:00,
2013-01-19 22:40:00,36.1,24.7,30.06,WSW,242,1.0,1.0,63,0.00,,,0.08,Wunderground v.1.15,2013-01-20 03:40:00,
2013-01-19 22:50:00,35.6,24.2,30.06,SW,231,0.0,0.0,63,0.00,,,0.08,Wunderground v.1.15,2013-01-20 03:50:00,
2013-01-19 23:00:00,35.0,24.0,30.05,SW,227,0.0,0.0,64,0.00,,,0.08,Wunderground v.1.15,2013-01-20 04:00:00,
2013-01-19 23:10:00,34.4,24.2,30.05,South,183,0.0,2.0,66,0.00,,,0.08,Wunderground v.1.15,2013-01-20 04:10:00,
2013-01-19 23:20:00,34.0,24.5,30.04,WSW,242,1.0,1.0,68,0.00,,,0.08,Wunderground v.1.15,2013-01-20 04:20:00,
2013-01-19 23:30:00,34.0,24.9,30.04,West,265,1.0,1.0,69,0.00,,,0.08,Wunderground v.1.15,2013-01-20 04:30:00,
2013-01-19 23:40:00,34.2,25.1,30.04,West,263,1.0,1.0,69,0.00,,,0.08,Wunderground v.1.15,2013-01-20 04:40:00,